Zurück zum Katalog

FENGYUN 1C DEB

AktivSSO
NORAD 31022·DEBRIS·🇨🇳 China

Gestartet May 10, 1999 von Taiyuan Satellite Launch Center

Loading…

Nächste Überflüge (nächste 24 Stunden)

TLE

AktuellSource: Space-Track

Epoche: Sep 14, 2026, 12:27 UTC

1 31022U 99025BDQ 26257.51912204  .00000337  00000-0  29175-3 0  9999
2 31022  99.4858 152.3447 0110398 103.2958 258.0539 13.90715758658411

Verfolge FENGYUN 1C DEB in Echtzeit mit AllMySat

Download on the App Store